ARIANE 3 DEB, 22101

Orbit data source: Space-Track

ARIANE 3 DEB, 22101 is space debris originally from a launch on Thu, 21 Jul 1988 UTC launched from the French Guiana (FRGUI). Debris objects in space refer to the collection of defunct objects orbiting the Earth. Examples of debris include non-operational satellites, rocket bodies, and fragments generated from explosions, collisions, or faulty payload assembly.

Loading next visibility...
Identifier
22101, 1988-063G
Orbit
Active
Country
Flag of FRFR
Related business
Manufacturer
Unknown
Mission
Spacecraft
Bus & Motor
Unknown
Mass
Unknown
Launch date (UTC)
1988-07-21 (38 years ago)
Launch vehicle
Unknown
Launch site
French Guiana (FRGUI)
Object type
Payload
Rocket body
Debris
Shape & HBR
Unknown shape, 0.3 m
Radar Cross Section
Medium (>0.1 m² and <1 m²)

Expand to show TLE details & history
Last TLE update: 8 months ago

TLE from 8 months ago
0 ARIANE 3 DEB
1 22101U 88063G   25299.15948447  .00014891  00000-0  64359-2 0  9992
2 22101   7.7994 309.0290 4163087 120.1726 287.4607  6.92627079322363
Epoch: 2025-10-26T03:49Z
TLE epoch observation values (Epoch: 2025-10-26T03:49:39.458Z)
Latitude
-0°
Longitude
-143.1651°
Altitude
5,771.63 km
Speed
5.598 km/s
True Right ascension
20h 36m 06s
True Declination
0° 00' 00"
Sunlit
Object was in daylight at epoch
Visualization orbit readout
Latitude
Unknown
Longitude
Unknown
Altitude
Unknown
Speed
Unknown
Apparent Right ascension
Unknown
Apparent Declination
Unknown
Sunlit
N/A
Visualization observer readout
Local Sidereal Time
23:07:57
Azimuth
Unknown
Elevation
Unknown
Doppler factor
Unknown
Orbital elements
Apogee altitude
10,093.755 km
Perigee altitude
410.284 km
Semi-major axis
11,630.157 km
Eccentricity
0.41631
Inclination
7.7994°
RAAN
309.029°
Arg. of periapsis
120.1726°
True anomaly
239.84051°
Mean anomaly
287.4607°
Eccentric anomaly
263.74975°
Mean motion
1.73047 °/min
Orbital period
208.04 mins
BSTAR
0.0064359
Loading maneuver chart data...
Computing Atmospheric mass density...
Loading historical data...
Loading historical data...
Loading historical data...
Loading historical data...
Loading historical data...
Loading historical data...
Loading historical data...

Documentation

Showing up to 5 results
|